Location: Strawberry
(45.6646°N, 111.9596°W)
Time: 22:43:47
(UTC+00:00)

X-37B - Pass Details

Date: 26 August 2022
Orbit: 330 x 340 km, 45.0° (Epoch: 02 September)

Event Time Altitude Azimuth Distance (km) Brightness Sun altitude
Rises 03:01:41 0° 253° (WSW) 2,091 5.1 -8.0°
Reaches altitude 10° 03:03:42 10° 250° (WSW) 1,258 3.9 -8.3°
Maximum altitude 03:06:29 62° 169° (SSE) 379 0.3 -8.7°
Enters shadow 03:09:03 12° 88° (E) 1,175 2.5 -9.1°
